DW5595 Weather Reports


time (UTC)temp
C
wind
direction
speed
KPH
gust
KPH
rain 1hr
cm
rain 24hr
cm
rain mn
cm
humidity
%
barometer
mb
20260905181534 27 162 3.2 12.9 0.08 0.08 0.08 68 1012.3
20260905180031 32 342 14.5 32.2 0.00 0.00 0.00 54 1013.5
20260905174530 33 307 8.0 17.7 0.00 0.00 0.00 52 1013.2
20260905173027 33 319 6.4 8.0 0.00 0.00 0.00 56 1013.6
20260905171530 33 19 4.8 9.7 0.00 0.00 0.00 58 1013.6
20260905170021 33 295 1.6 14.5 0.00 0.00 0.00 56 1013.7
20260905164516 33 335 4.8 12.9 0.00 0.00 0.00 56 1013.8
20260905163015 33 304 1.6 6.4 0.00 0.00 0.00 58 1014.1
20260905161511 32 244 0.0 14.5 0.00 0.00 0.00 58 1014.2
20260905160015 33 350 3.2 8.0 0.00 0.00 0.00 55 1014.5
20260905154531 33 329 0.0 3.2 0.00 0.00 0.00 58 1014.3
20260905153053 32 339 1.6 6.4 0.00 0.00 0.00 62 1014.5
20260905151523 31 21 4.8 6.4 0.00 0.00 0.00 63 1014.3
20260905150017 31 330 3.2 4.8 0.00 0.00 0.00 68 1014.4
20260905144522 30 176 0.0 3.2 0.00 0.00 0.00 71 1014.3
20260905143012 29 329 3.2 4.8 0.00 0.00 0.00 74 1014.4
20260905141509 28 332 0.0 3.2 0.00 0.00 0.00 75 1014.4
20260905140031 27 318 0.0 4.8 0.00 0.00 0.00 79 1014.4
20260905134527 27 331 0.0 3.2 0.00 0.00 0.00 83 1014.6
20260905133027 26 294 0.0 4.8 0.00 0.00 0.00 87 1014.5
20260905131535 25 316 3.2 4.8 0.00 0.00 0.00 90 1014.5
20260905130019 23 254 0.0 0.0 0.00 0.00 0.00 95 1014.6
20260905124532 22 135 0.0 1.6 0.00 0.00 0.00 97 1014.7
20260905123014 22 93 0.0 0.0 0.00 0.00 0.00 97 1014.6
20260905121532 21 92 0.0 0.0 0.00 0.00 0.00 97 1014.6
20260905120033 21 93 0.0 0.0 0.00 0.00 0.00 96 1014.5
20260905114528 21 93 0.0 0.0 0.00 0.00 0.00 96 1014.5
20260905113028 21 93 0.0 3.2 0.00 0.00 0.00 96 1014.2
20260905111521 21 167 0.0 0.0 0.00 0.00 0.00 96 1014.0
20260905110017 21 167 0.0 0.0 0.00 0.00 0.00 96 1013.7
20260905104510 21 167 0.0 0.0 0.00 0.00 0.00 96 1013.7
20260905103037 21 167 0.0 0.0 0.00 0.00 0.00 96 1013.6
20260905101533 21 167 0.0 0.0 0.00 0.00 0.00 96 1013.5
20260905100029 21 167 0.0 0.0 0.00 0.00 0.00 96 1013.5
20260905094527 21 167 0.0 0.0 0.00 0.00 0.00 96 1013.4
20260905093039 21 167 0.0 0.0 0.00 0.00 0.00 96 1013.5
20260905091518 21 167 0.0 0.0 0.00 0.00 0.00 96 1013.4
20260905090014 21 121 0.0 0.0 0.00 0.00 0.00 96 1013.5
20260905084534 21 121 0.0 0.0 0.00 0.00 0.00 96 1013.4
20260905083034 21 121 0.0 0.0 0.00 0.00 0.00 96 1013.7
20260905081531 21 121 0.0 0.0 0.00 0.00 0.00 95 1013.7
20260905080039 22 121 0.0 0.0 0.00 0.00 0.00 96 1013.9
20260905074524 22 121 0.0 0.0 0.00 0.00 0.00 95 1013.9
20260905073009 22 121 0.0 0.0 0.00 0.00 0.00 95 1014.1
20260905071507 22 121 0.0 0.0 0.00 0.00 0.00 95 1014.1
20260905070014 22 121 0.0 0.0 0.00 0.00 0.00 95 1014.5
20260905064508 22 121 0.0 0.0 0.00 0.00 0.00 95 1014.5
20260905063012 22 121 0.0 0.0 0.00 0.00 0.00 95 1014.7
20260905061512 22 121 0.0 0.0 0.00 0.00 0.00 95 1014.8
20260905060012 22 121 0.0 0.0 0.00 0.00 0.00 95 1015.1
20260905054515 22 121 0.0 0.0 0.00 0.00 0.00 94 1015.3
20260905053012 23 121 0.0 0.0 0.00 0.00 0.00 95 1015.5
20260905051523 23 34 0.0 0.0 0.00 0.00 0.00 94 1015.7
20260905050013 23 34 0.0 0.0 0.00 0.00 0.00 94 1015.6
20260905044514 23 34 0.0 0.0 0.00 0.00 0.00 94 1015.5
20260905043014 23 84 0.0 0.0 0.00 0.00 0.00 94 1015.4
20260905041516 23 38 0.0 0.0 0.00 0.00 0.00 93 1015.3
20260905040014 23 40 0.0 0.0 0.00 0.00 0.00 94 1015.2
20260905034518 23 40 0.0 0.0 0.00 0.00 0.00 93 1015.2
20260905033020 23 25 0.0 0.0 0.00 0.00 0.00 93 1014.9
20260905031518 24 145 0.0 0.0 0.00 0.00 0.00 93 1014.8
20260905030024 24 145 0.0 0.0 0.00 0.00 0.00 92 1014.9
20260905024525 24 145 0.0 0.0 0.00 0.00 0.00 92 1015.1
20260905023019 24 145 1.6 3.2 0.00 0.00 0.00 92 1015.2
20260905021514 25 96 0.0 0.0 0.00 0.00 0.00 91 1015.4
20260905020017 25 96 0.0 0.0 0.00 0.00 0.00 91 1015.3
20260905014516 25 96 0.0 0.0 0.00 0.00 0.00 90 1015.3
20260905013017 25 96 0.0 0.0 0.00 0.00 0.00 89 1015.4
20260905011517 26 96 0.0 3.2 0.00 0.00 0.00 89 1015.4
20260905010016 26 96 0.0 0.0 0.00 0.00 0.00 87 1015.6
20260905004516 26 96 0.0 1.6 0.00 0.00 0.00 87 1015.2
20260905003028 27 360 0.0 4.8 0.00 0.00 0.00 85 1015.1
20260905001521 27 172 0.0 0.0 0.00 0.00 0.00 81 1015.1
20260905000032 28 172 0.0 0.0 0.00 0.00 0.00 80 1015.1
20260904234524 29 172 0.0 0.0 0.00 0.00 0.00 75 1015.0
20260904233025 30 172 0.0 0.0 0.00 0.00 0.00 72 1014.7
20260904231526 30 172 0.0 0.0 0.00 0.00 0.00 68 1014.5
20260904230047 31 172 0.0 0.0 0.00 0.00 0.00 64 1014.4
20260904224524 32 150 0.0 3.2 0.00 0.00 0.00 61 1014.4
20260904223023 32 160 0.0 0.0 0.00 0.00 0.00 58 1014.6
20260904221521 33 147 1.6 3.2 0.00 0.00 0.00 56 1014.5
20260904220029 33 170 0.0 8.0 0.00 0.00 0.00 53 1014.7
20260904214514 33 157 1.6 6.4 0.00 0.00 0.00 57 1014.6
20260904213023 33 152 1.6 4.8 0.00 0.00 0.00 55 1014.8
20260904211510 33 188 1.6 11.3 0.00 0.00 0.00 56 1014.6
20260904210033 33 169 3.2 6.4 0.00 0.00 0.00 53 1014.6
20260904204525 33 138 1.6 6.4 0.00 0.00 0.00 53 1014.8
20260904203023 33 168 3.2 6.4 0.00 0.00 0.00 53 1014.8
20260904201516 33 196 0.0 3.2 0.00 0.00 0.00 54 1014.8
20260904200038 33 182 3.2 6.4 0.00 0.00 0.00 52 1015.1
20260904194511 34 131 3.2 11.3 0.00 0.00 0.00 51 1015.2
20260904193027 34 159 1.6 11.3 0.00 0.00 0.00 49 1015.5
20260904191507 34 202 0.0 11.3 0.00 0.00 0.00 53 1015.9
20260904190029 34 146 4.8 9.7 0.00 0.00 0.00 58 1016.1
20260904184542 34 352 0.0 6.4 0.00 0.00 0.00 53 1016.3
20260904183019 33 125 0.0 4.8 0.00 0.00 0.00 57 1016.4